TimeHST,TemperatureF,Dew PointF,Humidity,Sea Level PressureIn,VisibilityMPH,Wind Direction,Wind SpeedMPH,Gust SpeedMPH,PrecipitationIn,Events,Conditions,WindDirDegrees,DateUTC
12:26 AM,69.8,66.2,88,30.16,10.0,East,12.7,23.0,N/A,,Scattered Clouds,80,2013-02-22 10:26:00
12:57 AM,69.8,66.0,88,30.15,10.0,ENE,10.4,19.6,N/A,,Mostly Cloudy,70,2013-02-22 10:57:00
1:04 AM,69.8,64.4,83,30.16,10.0,East,11.5,19.6,N/A,,Mostly Cloudy,80,2013-02-22 11:04:00
1:28 AM,69.8,64.4,83,30.15,10.0,ENE,12.7,19.6,N/A,,Mostly Cloudy,60,2013-02-22 11:28:00
1:57 AM,69.8,64.9,84,30.13,10.0,ENE,12.7,19.6,N/A,,Overcast,60,2013-02-22 11:57:00
2:11 AM,69.8,64.4,83,30.13,10.0,ENE,10.4,18.4,N/A,,Mostly Cloudy,60,2013-02-22 12:11:00
2:20 AM,69.8,64.4,83,30.13,10.0,ENE,10.4,19.6,N/A,,Overcast,60,2013-02-22 12:20:00
2:28 AM,69.8,64.4,83,30.12,10.0,ENE,10.4,19.6,0.00,Rain,Light Rain,60,2013-02-22 12:28:00
2:42 AM,69.8,64.4,83,30.12,10.0,ENE,11.5,20.7,0.00,,Mostly Cloudy,70,2013-02-22 12:42:00
2:49 AM,69.8,64.4,83,30.12,10.0,ENE,12.7,20.7,0.00,,Mostly Cloudy,70,2013-02-22 12:49:00
2:57 AM,69.8,64.9,84,30.11,10.0,ENE,11.5,19.6,0.00,,Mostly Cloudy,70,2013-02-22 12:57:00
3:33 AM,69.8,64.4,83,30.11,6.2,ENE,9.2,29.9,0.01,Rain,Rain,60,2013-02-22 13:33:00
3:57 AM,69.8,64.9,84,30.09,10.0,Variable,6.9,27.6,0.02,Rain,Light Rain,0,2013-02-22 13:57:00
4:14 AM,69.8,66.2,88,30.09,6.2,East,8.1,-,0.00,,Overcast,100,2013-02-22 14:14:00
4:24 AM,69.8,66.2,88,30.09,10.0,ENE,9.2,17.3,0.00,,Overcast,60,2013-02-22 14:24:00
4:57 AM,69.8,66.0,88,30.09,10.0,East,9.2,19.6,0.00,,Mostly Cloudy,80,2013-02-22 14:57:00
5:01 AM,69.8,66.2,88,30.10,10.0,ENE,11.5,17.3,N/A,,Mostly Cloudy,70,2013-02-22 15:01:00
5:21 AM,69.8,66.2,88,30.10,6.2,ENE,12.7,19.6,N/A,,Overcast,60,2013-02-22 15:21:00
5:32 AM,69.8,66.2,88,30.10,10.0,East,11.5,19.6,N/A,,Overcast,80,2013-02-22 15:32:00
5:57 AM,69.8,66.0,88,30.10,10.0,ENE,9.2,20.7,0.02,Rain,Light Rain,70,2013-02-22 15:57:00
6:28 AM,69.8,66.2,88,30.11,6.2,NE,8.1,16.1,0.03,Rain,Light Rain,50,2013-02-22 16:28:00
6:38 AM,69.8,66.2,88,30.11,6.2,ENE,10.4,20.7,0.03,Rain,Light Rain,70,2013-02-22 16:38:00
6:57 AM,71.6,66.0,82,30.11,10.0,East,13.8,23.0,0.03,,Overcast,90,2013-02-22 16:57:00
7:19 AM,71.6,64.4,78,30.13,6.2,East,8.1,17.3,N/A,,Overcast,80,2013-02-22 17:19:00
7:57 AM,71.6,64.0,77,30.13,10.0,East,11.5,23.0,N/A,,Mostly Cloudy,80,2013-02-22 17:57:00
8:15 AM,71.6,64.4,78,30.15,6.2,East,9.2,18.4,0.03,Rain,Light Rain,80,2013-02-22 18:15:00
8:57 AM,71.6,64.0,77,30.14,10.0,ENE,12.7,24.2,0.04,,Overcast,60,2013-02-22 18:57:00
9:57 AM,74.5,66.0,75,30.16,10.0,East,16.1,23.0,0.00,,Scattered Clouds,80,2013-02-22 19:57:00
10:57 AM,73.2,66.0,78,30.15,10.0,NE,15.0,21.9,0.05,Rain,Light Rain,50,2013-02-22 20:57:00
11:16 AM,73.4,66.2,78,30.16,6.2,ENE,13.8,24.2,0.00,Rain,Light Rain,70,2013-02-22 21:16:00
11:57 AM,74.8,66.0,74,30.14,10.0,East,15.0,25.3,0.00,,Mostly Cloudy,80,2013-02-22 21:57:00
12:24 PM,75.2,64.4,69,30.14,6.2,ENE,11.5,23.0,N/A,,Mostly Cloudy,70,2013-02-22 22:24:00
12:57 PM,75.6,64.9,69,30.11,10.0,ENE,10.4,21.9,N/A,,Mostly Cloudy,70,2013-02-22 22:57:00
1:12 PM,75.2,64.4,69,30.12,6.2,East,17.3,27.6,N/A,,Mostly Cloudy,80,2013-02-22 23:12:00
1:57 PM,76.3,64.9,68,30.09,10.0,ENE,13.8,26.5,N/A,,Mostly Cloudy,70,2013-02-22 23:57:00
2:18 PM,77.0,64.4,65,30.10,6.2,ENE,12.7,23.0,N/A,,Mostly Cloudy,70,2013-02-23 00:18:00
2:57 PM,74.1,64.9,73,30.07,10.0,ENE,15.0,21.9,N/A,,Mostly Cloudy,70,2013-02-23 00:57:00
3:44 PM,73.4,64.4,73,30.08,6.2,ENE,13.8,23.0,0.00,,Overcast,60,2013-02-23 01:44:00
3:57 PM,75.7,64.9,69,30.07,10.0,ENE,13.8,20.7,0.00,,Mostly Cloudy,60,2013-02-23 01:57:00
4:18 PM,75.2,64.4,69,30.09,6.2,ENE,10.4,20.7,0.00,,Mostly Cloudy,60,2013-02-23 02:18:00
4:29 PM,75.2,64.4,69,30.09,6.2,NE,12.7,21.9,0.00,,Overcast,50,2013-02-23 02:29:00
4:54 PM,75.2,64.4,69,30.09,6.2,East,13.8,21.9,0.00,,Mostly Cloudy,80,2013-02-23 02:54:00
4:57 PM,75.7,64.9,69,30.08,10.0,East,11.5,21.9,0.00,,Mostly Cloudy,90,2013-02-23 02:57:00
5:44 PM,75.2,64.4,69,30.11,6.2,NE,12.7,23.0,N/A,,Mostly Cloudy,50,2013-02-23 03:44:00
5:57 PM,73.4,64.0,72,30.09,10.0,NE,12.7,19.6,N/A,,Mostly Cloudy,50,2013-02-23 03:57:00
6:27 PM,73.4,64.4,73,30.11,6.2,ENE,11.5,24.2,0.02,,Mostly Cloudy,60,2013-02-23 04:27:00
6:36 PM,73.4,64.4,73,30.12,6.2,ENE,12.7,21.9,0.02,,Overcast,60,2013-02-23 04:36:00
6:57 PM,71.6,64.9,79,30.11,10.0,ENE,13.8,23.0,0.02,,Mostly Cloudy,70,2013-02-23 04:57:00
7:17 PM,71.6,64.4,78,30.12,6.2,ENE,9.2,20.7,N/A,,Mostly Cloudy,70,2013-02-23 05:17:00
7:25 PM,71.6,64.4,78,30.12,10.0,ENE,12.7,28.8,0.00,Rain,Light Rain,70,2013-02-23 05:25:00
7:34 PM,71.6,64.4,78,30.13,10.0,ENE,12.7,23.0,0.00,Rain,Light Rain,70,2013-02-23 05:34:00
7:57 PM,71.4,64.4,78,30.12,10.0,East,11.5,23.0,0.00,,Overcast,80,2013-02-23 05:57:00
8:57 PM,71.1,64.4,79,30.13,10.0,ENE,6.9,19.6,0.01,,Mostly Cloudy,70,2013-02-23 06:57:00
9:57 PM,70.7,64.4,80,30.14,10.0,ENE,8.1,19.6,N/A,,Partly Cloudy,70,2013-02-23 07:57:00
10:50 PM,71.6,64.4,78,30.16,10.0,ENE,11.5,20.7,N/A,,Mostly Cloudy,70,2013-02-23 08:50:00
10:57 PM,71.2,64.6,79,30.15,10.0,ENE,12.7,21.9,N/A,,Mostly Cloudy,70,2013-02-23 08:57:00
11:17 PM,71.6,64.4,78,30.16,10.0,East,6.9,16.1,N/A,,Scattered Clouds,80,2013-02-23 09:17:00
11:57 PM,70.5,64.6,81,30.13,10.0,ENE,10.4,17.3,N/A,,Mostly Cloudy,70,2013-02-23 09:57:00